Location: Beneden-Haastrecht
(52.0012°N, 4.7557°E)
Time: 03:33:52
(UTC+00:00)

H-2A R/B - Pass Details

Date: 24 October 2020
Orbit: 577 x 656 km, 98.5° (Epoch: 24 November)

Event Time Altitude Azimuth Distance (km) Brightness Sun altitude
Rises 17:13:54 0° 12° (NNE) 2,877 5.3 -7.8°
Reaches altitude 10° 17:16:07 10° 9° (N) 1,956 4.5 -8.1°
Maximum altitude 17:20:16 58° 291° (WNW) 698 2.7 -8.8°
Drops below altitude 10° 17:24:19 10° 212° (SSW) 1,904 5.2 -9.4°
Sets 17:26:28 0° 208° (SSW) 2,792 6.0 -9.7°
